Location: Myrnam
(53.6612°N, 111.2289°W)
Time: 12:31:34
(UTC+00:00)

SO-50 - Visible Passes

Search period start: 05 December 2023 00:00
Search period end: 15 December 2023 00:00
Orbit: 601 x 670 km, 64.6° (Epoch: 04 December)

Date Brightness Start Highest point End Pass type
(mag) Time Alt. Az. Time Alt. Az. Time Alt. Az.
05 Dec ? 11:26:32 24° NE 11:26:32 24° NE 11:28:24 10° NE visible
05 Dec ? 13:04:02 36° NW 13:04:22 36° NNW 13:08:41 10° NE visible
05 Dec ? 14:42:12 10° NW 14:45:49 21° N 14:49:22 10° NE visible
06 Dec ? 11:48:47 28° NE 11:48:47 28° NE 11:51:02 10° NE visible
06 Dec ? 13:26:16 25° NW 13:27:19 27° NNW 13:31:17 10° NE visible
07 Dec ? 12:10:57 30° NNE 12:10:57 30° NNE 12:13:34 10° NE visible
07 Dec ? 13:48:26 18° NW 13:50:22 23° N 13:54:02 10° NE visible
08 Dec ? 10:55:36 12° NE 10:55:36 12° NE 10:55:52 10° NE visible
08 Dec ? 12:33:04 28° N 12:33:04 28° N 12:36:06 10° NE visible
08 Dec ? 14:10:33 13° NW 14:13:28 21° N 14:16:59 10° NE visible
09 Dec ? 11:17:40 15° NE 11:17:40 15° NE 11:18:25 10° NE visible
09 Dec ? 12:55:08 25° NNW 12:55:08 25° NNW 12:58:45 10° NE visible
09 Dec ? 14:32:55 10° NW 14:36:33 22° N 14:40:08 10° ENE visible
10 Dec ? 11:39:42 17° NNE 11:39:42 17° NNE 11:40:56 10° NE visible
10 Dec ? 13:17:10 21° NNW 13:17:58 22° N 13:21:33 10° NE visible
11 Dec ? 12:01:42 20° NNE 12:01:42 20° NNE 12:03:30 10° NE visible
11 Dec ? 13:39:10 17° NNW 13:41:04 21° N 13:44:34 10° NE visible
12 Dec ? 12:23:41 21° N 12:23:41 21° N 12:26:10 10° NE visible
12 Dec ? 14:01:09 13° NW 14:04:07 23° NNE 14:07:47 10° ENE visible
13 Dec ? 11:08:11 10° NE 11:08:11 10° NE 11:08:17 10° NE visible
13 Dec ? 12:45:39 21° N 12:45:39 21° N 12:49:03 10° NE visible
13 Dec ? 14:23:07 10° NW 14:27:07 28° NNE 14:31:02 10° E visible
14 Dec ? 11:30:08 13° NNE 11:30:08 13° NNE 11:30:51 10° NE visible
14 Dec ? 13:07:36 20° NNW 13:08:36 22° N 13:12:08 10° ENE visible
14 Dec ? 14:45:40 10° NW 14:49:59 39° NNE 14:54:13 10° E visible
